Tracking 19969 objects as of 12-Nov-2019
Live streaming from Space Station
objects crossing your sky now
Track the group of recently launched Starlink satellites

THORAD DELTA 1 DEB

Track THORAD DELTA 1 DEB now!
10-day predictions


NORAD ID: 8184
Int'l Code: 1974-089BA
Perigee: 1,431.7 km
Apogee: 1,532.5 km
Inclination: 101.5 °
Period: 115.4 minutes
Semi major axis: 7853 km
RCS: 0.8469 m2 (medium)
Launch date: November 15, 1974
Source: United States (US)
Launch site: AIR FORCE WESTERN TEST RANGE (AFWTR)

Note: This is SATELLITE DEBRIS
aabbcc
Your satellite tracking list
Your tracking list is empty




NASA's NSSDC Master Catalog

Two Line Element Set (TLE):
1  8184U 74089BA  19315.60800541  .00000004  00000-0  30939-3 0  9993
2  8184 101.4662 352.9219 0064173  91.4173  60.0336 12.47496320 48671
Source of the keplerian elements: AFSPC